When you browse on this site, cookies collect data to enhance your experience and personalize the content and advertising you see.
Visit our Privacy Policy to learn more. By continuing to use the site, you agree to this use of cookies and data.
  • In Österreich
  • Länderverzeichnis
  • Für 7 Tage
  • Wassertemperatur
  • Satellitenkarten
  • Wetterkarte
  • News
  • Widgets
  • user-avatar
    Anmelden

    Stündliche Wetter Ordino

    Heute, 19 April, Freitag

    Zeit Temperatur Niederschläge Wind Luftdruck Luftfeuchtigkeit
    00:00 +7°C° 0 mm 2 m/S 633 mmHg 59%
    01:00 +6°C° 0.1 mm 2 m/S 633 mmHg 60%
    02:00 +6°C° 0.1 mm 2 m/S 633 mmHg 61%
    03:00 +5°C° 0.1 mm 2 m/S 633 mmHg 62%
    04:00 +5°C° 0.1 mm 2 m/S 633 mmHg 61%
    05:00 +6°C° 0.1 mm 2 m/S 633 mmHg 60%
    06:00 +6°C° 0.1 mm 2 m/S 634 mmHg 59%
    07:00 +8°C° 0.2 mm 2 m/S 634 mmHg 56%
    08:00 +9°C° 0.2 mm 2 m/S 635 mmHg 54%
    09:00 +12°C° 0.2 mm 2 m/S 636 mmHg 51%
    10:00 +13°C° 0.2 mm 2 m/S 637 mmHg 48%
    11:00 +14°C° 0.2 mm 1 m/S 637 mmHg 46%
    12:00 +15°C° 0.2 mm 1 m/S 638 mmHg 43%
    13:00 +16°C° 0.1 mm 1 m/S 638 mmHg 44%
    14:00 +16°C° 0.1 mm 1 m/S 638 mmHg 45%
    15:00 +16°C° 0.1 mm 1 m/S 638 mmHg 46%
    16:00 +15°C° 0 mm 1 m/S 638 mmHg 52%
    17:00 +13°C° 0 mm 1 m/S 638 mmHg 57%
    18:00 +12°C° 0 mm 1 m/S 637 mmHg 62%
    19:00 +11°C° 0 mm 1 m/S 637 mmHg 65%
    20:00 +10°C° 0 mm 1 m/S 637 mmHg 68%
    21:00 +8°C° 0 mm 1 m/S 637 mmHg 71%
    22:00 +8°C° 0 mm 1 m/S 637 mmHg 70%
    23:00 +7°C° 0 mm 1 m/S 637 mmHg 69%

    Morgen, 20 April, Samstag

    Zeit Temperatur Niederschläge Wind Luftdruck Luftfeuchtigkeit
    00:00 +7°C° 0 mm 1 m/S 636 mmHg 68%
    01:00 +7°C° 0 mm 1 m/S 636 mmHg 68%
    02:00 +6°C° 0 mm 1 m/S 636 mmHg 68%
    03:00 +6°C° 0 mm 1 m/S 635 mmHg 68%
    04:00 +6°C° 0 mm 1 m/S 635 mmHg 66%
    05:00 +6°C° 0 mm 1 m/S 635 mmHg 65%
    06:00 +7°C° 0 mm 1 m/S 635 mmHg 63%
    07:00 +9°C° 0 mm 1 m/S 636 mmHg 56%
    08:00 +12°C° 0 mm 1 m/S 637 mmHg 49%
    09:00 +14°C° 0 mm 1 m/S 638 mmHg 41%
    10:00 +15°C° 0 mm 1 m/S 638 mmHg 40%
    11:00 +16°C° 0 mm 1 m/S 638 mmHg 40%
    12:00 +16°C° 0 mm 2 m/S 638 mmHg 39%
    13:00 +15°C° 0.3 mm 2 m/S 637 mmHg 46%
    14:00 +14°C° 0.3 mm 2 m/S 636 mmHg 54%
    15:00 +12°C° 0.3 mm 2 m/S 636 mmHg 61%
    16:00 +11°C° 1.1 mm 1 m/S 635 mmHg 67%
    17:00 +10°C° 1.1 mm 1 m/S 635 mmHg 74%
    18:00 +8°C° 1.1 mm 1 m/S 634 mmHg 81%
    19:00 +8°C° 1.6 mm 1 m/S 634 mmHg 83%
    20:00 +6°C° 1.6 mm 2 m/S 634 mmHg 86%
    21:00 +5°C° 1.6 mm 2 m/S 634 mmHg 89%
    22:00 +5°C° 1.6 mm 2 m/S 634 mmHg 89%
    23:00 +6°C° 1.6 mm 1 m/S 633 mmHg 90%

    übermorgen, 21 April, Sonntag

    Zeit Temperatur Niederschläge Wind Luftdruck Luftfeuchtigkeit
    00:00 +6°C° 1.6 mm 1 m/S 633 mmHg 91%
    01:00 +5°C° 0.6 mm 1 m/S 632 mmHg 91%
    02:00 +5°C° 0.6 mm 1 m/S 632 mmHg 91%
    03:00 +5°C° 0.6 mm 1 m/S 632 mmHg 91%
    04:00 +5°C° 0.2 mm 1 m/S 631 mmHg 91%
    05:00 +5°C° 0.2 mm 1 m/S 631 mmHg 91%
    06:00 +5°C° 0.2 mm 1 m/S 631 mmHg 91%
    07:00 +6°C° 0 mm 1 m/S 631 mmHg 86%
    08:00 +7°C° 0 mm 1 m/S 632 mmHg 82%
    09:00 +8°C° 0 mm 2 m/S 632 mmHg 77%
    10:00 +8°C° 0.1 mm 2 m/S 632 mmHg 73%
    11:00 +9°C° 0.1 mm 2 m/S 632 mmHg 69%
    12:00 +10°C° 0.1 mm 2 m/S 632 mmHg 66%
    13:00 +10°C° 0.1 mm 2 m/S 632 mmHg 66%
    14:00 +10°C° 0.1 mm 2 m/S 631 mmHg 67%
    15:00 +11°C° 0.1 mm 1 m/S 631 mmHg 68%
    16:00 +10°C° 0 mm 1 m/S 630 mmHg 71%
    17:00 +9°C° 0 mm 1 m/S 630 mmHg 75%
    18:00 +8°C° 0 mm 1 m/S 629 mmHg 78%
    19:00 +7°C° 0 mm 1 m/S 629 mmHg 81%
    20:00 +7°C° 0 mm 1 m/S 629 mmHg 85%
    21:00 +6°C° 0 mm 1 m/S 628 mmHg 88%
    22:00 +6°C° 0.2 mm 1 m/S 628 mmHg 88%
    23:00 +6°C° 0.2 mm 1 m/S 627 mmHg 88%

    22 April, Montag

    Zeit Temperatur Niederschläge Wind Luftdruck Luftfeuchtigkeit
    00:00 +6°C° 0.2 mm 1 m/S 626 mmHg 88%
    01:00 +5°C° 0 mm 1 m/S 626 mmHg 89%
    02:00 +5°C° 0 mm 1 m/S 625 mmHg 90%
    03:00 +4°C° 0 mm 1 m/S 624 mmHg 92%
    04:00 +5°C° 0.1 mm 1 m/S 624 mmHg 91%
    05:00 +5°C° 0.1 mm 1 m/S 624 mmHg 90%
    06:00 +6°C° 0.1 mm 1 m/S 624 mmHg 89%
    07:00 +6°C° 0.6 mm 1 m/S 624 mmHg 88%
    08:00 +7°C° 0.6 mm 1 m/S 624 mmHg 87%
    09:00 +7°C° 0.6 mm 1 m/S 623 mmHg 86%
    10:00 +8°C° 0.5 mm 1 m/S 623 mmHg 83%
    11:00 +9°C° 0.5 mm 1 m/S 623 mmHg 81%
    12:00 +9°C° 0.5 mm 1 m/S 623 mmHg 78%
    13:00 +9°C° 0.5 mm 1 m/S 623 mmHg 79%
    14:00 +9°C° 0.5 mm 1 m/S 622 mmHg 80%
    15:00 +9°C° 0.5 mm 1 m/S 622 mmHg 80%
    16:00 +8°C° 0.5 mm 1 m/S 622 mmHg 84%
    17:00 +8°C° 0.5 mm 1 m/S 621 mmHg 87%
    18:00 +7°C° 0.5 mm 1 m/S 621 mmHg 91%
    19:00 +7°C° 0.5 mm 1 m/S 621 mmHg 92%
    20:00 +7°C° 0.5 mm 1 m/S 621 mmHg 94%
    21:00 +6°C° 0.5 mm 1 m/S 621 mmHg 96%
    22:00 +6°C° 0.3 mm 1 m/S 621 mmHg 96%
    23:00 +6°C° 0.3 mm 1 m/S 620 mmHg 96%

    23 April, Dienstag

    Zeit Temperatur Niederschläge Wind Luftdruck Luftfeuchtigkeit
    00:00 +5°C° 0.3 mm 2 m/S 620 mmHg 96%
    01:00 +5°C° 0.1 mm 2 m/S 620 mmHg 95%
    02:00 +4°C° 0.1 mm 2 m/S 619 mmHg 94%
    03:00 +4°C° 0.1 mm 2 m/S 619 mmHg 93%
    04:00 +4°C° 0 mm 2 m/S 619 mmHg 92%
    05:00 +4°C° 0 mm 2 m/S 619 mmHg 91%
    06:00 +4°C° 0 mm 2 m/S 619 mmHg 90%
    07:00 +6°C° 0 mm 2 m/S 620 mmHg 85%
    08:00 +7°C° 0 mm 2 m/S 621 mmHg 79%
    09:00 +9°C° 0 mm 3 m/S 621 mmHg 74%
    10:00 +10°C° 0.1 mm 3 m/S 622 mmHg 72%
    11:00 +10°C° 0.1 mm 3 m/S 622 mmHg 70%
    12:00 +11°C° 0.1 mm 3 m/S 622 mmHg 68%
    13:00 +10°C° 0.3 mm 3 m/S 622 mmHg 72%
    14:00 +9°C° 0.3 mm 3 m/S 621 mmHg 77%
    15:00 +8°C° 0.3 mm 3 m/S 621 mmHg 81%
    16:00 +8°C° 0.2 mm 3 m/S 621 mmHg 83%
    17:00 +7°C° 0.2 mm 3 m/S 621 mmHg 84%
    18:00 +7°C° 0.2 mm 3 m/S 621 mmHg 86%
    19:00 +5°C° 0.2 mm 3 m/S 622 mmHg 88%
    20:00 +5°C° 0.2 mm 3 m/S 622 mmHg 90%
    21:00 +5°C° 0.2 mm 2 m/S 623 mmHg 92%
    22:00 +5°C° 0 mm 2 m/S 623 mmHg 91%
    23:00 +4°C° 0 mm 2 m/S 623 mmHg 89%

    24 April, Mittwoch

    Zeit Temperatur Niederschläge Wind Luftdruck Luftfeuchtigkeit
    00:00 +3°C° 0 mm 2 m/S 623 mmHg 87%
    01:00 +3°C° 0.1 mm 2 m/S 623 mmHg 87%
    02:00 +4°C° 0.1 mm 2 m/S 623 mmHg 86%
    03:00 +4°C° 0.1 mm 2 m/S 623 mmHg 85%
    04:00 +3°C° 0.8 mm 3 m/S 624 mmHg 87%
    05:00 +3°C° 0.8 mm 3 m/S 624 mmHg 90%
    06:00 +3°C° 0.8 mm 3 m/S 624 mmHg 92%
    07:00 +3°C° 1.6 mm 3 m/S 625 mmHg 92%
    08:00 +4°C° 1.6 mm 2 m/S 625 mmHg 92%
    09:00 +4°C° 1.6 mm 2 m/S 625 mmHg 92%
    10:00 +4°C° 2.1 mm 2 m/S 625 mmHg 92%
    11:00 +4°C° 2.1 mm 2 m/S 625 mmHg 92%
    12:00 +4°C° 2.1 mm 2 m/S 625 mmHg 92%
    13:00 +4°C° 1.5 mm 2 m/S 625 mmHg 93%
    14:00 +5°C° 1.5 mm 2 m/S 625 mmHg 93%
    15:00 +5°C° 1.5 mm 2 m/S 625 mmHg 93%
    16:00 +4°C° 1.4 mm 2 m/S 625 mmHg 94%
    17:00 +4°C° 1.4 mm 2 m/S 625 mmHg 95%
    18:00 +5°C° 1.4 mm 1 m/S 625 mmHg 96%
    19:00 +5°C° 1.7 mm 1 m/S 625 mmHg 96%
    20:00 +4°C° 1.7 mm 1 m/S 625 mmHg 96%
    21:00 +4°C° 1.7 mm 1 m/S 625 mmHg 96%
    22:00 +3°C° 0.4 mm 1 m/S 625 mmHg 93%
    23:00 +2°C° 0.4 mm 1 m/S 624 mmHg 91%
    Mehr zeigen